Home   Weather   Victoria   Past weeks

Flag for Canada Past Weather in Victoria, British Columbia, Canada — Yesterday and Last 2 Weeks

Now
52 °F

Passing clouds.


Feels Like: 46 °F
Forecast: 46 / 53 °F
Wind: 22 mph from West

Location: Victoria Int. Airportb. C.

Current Time: Apr 26, 2017 at 8:17:08 pm

Latest Report: Apr 26, 2017 at 7:00 pm


Visibility: 30 mi

Pressure: 29.85 "Hg

Humidity: 54%

Dew Point: 36 °F

Location of VictoriaLocation

Past Weather in Victoria — Graph

°F

Victoria Temperature Yesterday

Maximum temperature yesterday: 55 °F (at 3:00 pm)
Minimum temperature yesterday: 43 °F (at 2:00 am)
Average temperature yesterday: 50 °F

High & Low Weather Summary for the Past Weeks

 TemperatureHumidityPressure
High61 °F (Apr 21, 4:00 pm)100% (Apr 12, 7:45 am)30.42 "Hg (Apr 12, 7:45 am)
Low39 °F (Apr 15, 11:00 pm)48% (Apr 16, 5:00 pm)29.65 "Hg (Apr 13, 12:30 am)
Average49 °F81%29.93 "Hg
* Reported Apr 11 6:00 pm — Apr 26 6:00 pm, Victoria, Weather by CustomWeather, © 2017

Note: Actual official high and low records may vary slightly from our data, if they occured in-between our weather recording intervals... More about our weather records

Advertising

Victoria Weather History for the Previous 24 Hours

Scroll right to see more
 ConditionsComfort  
Time TempWeatherWind HumidityBarometerVisibility
6:00 pm
Wed, Apr 26
54 °FPassing clouds.20 mph54%29.85 "Hg30 mi
5:00 pm55 °FPassing clouds.16 mph51%29.83 "Hg30 mi
4:00 pm55 °FPassing clouds.20 mph51%29.82 "Hg30 mi
3:00 pm54 °FScattered clouds.17 mph54%29.82 "Hg30 mi
2:00 pm57 °FScattered clouds.20 mph51%29.81 "Hg30 mi
1:00 pm55 °FScattered clouds.15 mph59%29.80 "Hg30 mi
12:26 pm54 °FScattered clouds.12 mph58%29.79 "Hg30 mi
11:00 am52 °FBroken clouds.15 mph62%29.79 "Hg30 mi
10:00 am52 °FScattered clouds.12 mph67%29.77 "Hg30 mi
9:00 am54 °FScattered clouds.5 mph67%29.76 "Hg30 mi
8:00 am52 °FBroken clouds.6 mph72%29.75 "Hg30 mi
7:00 am48 °FBroken clouds.9 mph76%29.74 "Hg30 mi
6:00 am48 °FPartly cloudy.9 mph82%29.73 "Hg30 mi
5:00 am48 °FPartly cloudy.7 mph82%29.72 "Hg30 mi
4:00 am50 °FPassing clouds.13 mph76%29.72 "Hg20 mi
3:50 am50 °FPassing clouds.9 mph76%29.72 "Hg20 mi
3:00 am48 °FPartly cloudy.8 mph94%29.72 "Hg20 mi
2:42 am48 °FPartly cloudy.10 mph94%29.71 "Hg20 mi
2:00 am48 °FLight rain. Overcast.10 mph94%29.72 "Hg12 mi
1:00 am48 °FMostly cloudy.14 mph94%29.72 "Hg15 mi
12:00 am48 °FLight rain. Overcast.8 mph94%29.73 "Hg20 mi
11:13 pm
Tue, Apr 25
50 °FLight rain. Overcast.15 mph82%29.72 "Hg30 mi
11:00 pm50 °FOvercast.14 mph82%29.72 "Hg30 mi
10:00 pm52 °FMostly cloudy.12 mph72%29.73 "Hg30 mi
9:35 pm52 °FMostly cloudy.13 mph72%29.73 "Hg30 mi
9:16 pm52 °FLight rain. Mostly cloudy.7 mph72%29.74 "Hg30 mi
9:00 pm52 °FOvercast.7 mph77%29.74 "Hg30 mi
8:00 pm52 °FLight rain. Broken clouds.7 mph77%29.75 "Hg30 mi
Weather by CustomWeather, © 2017

See weather overviewHow to use our weather pages